Weather History for Rawlins, WY

Change the Weather History Date:

Wednesday, February 5, 2014

  Actual Average Record
Temperature  
Mean Temperature -6 °F 22 °F  
Max Temperature -1 °F 32 °F 55 °F (1963)
Min Temperature -12 °F 12 °F -33 °F (1982)
Degree Days  
Heating Degree Days 71 43  
Month to date heating degree days 286 216  
Since 1 July heating degree days 4959 5015  
Cooling Degree Days 0 0  
Month to date cooling degree days 0 0  
Year to date cooling degree days 0 0  
Moisture  
Dew Point -13 °F    
Average Humidity 72    
Maximum Humidity 79    
Minimum Humidity 65    
Precipitation  
Precipitation 0.01 in 0.01 in 0.27 in (1974)
Month to date precipitation 0.02 0.06  
Year to date precipitation 0.20 0.42  
Sea Level Pressure  
Sea Level Pressure 30.18 in    
Wind  
Wind Speed 8 mph (NE)    
Max Wind Speed 15 mph    
Max Gust Speed 17 mph    
Visibility 4 miles    
Events Snow    
T = Trace of Precipitation, MM = Missing Value Source: NWS Daily Summary

Daily Weather History Graph

Daily Weather History Graph

Search for Another Location

Airport:

Trip Planner

Search our weather history database for the weather conditions in past years. The results will help you decide how hot, cold, wet, or windy it might be!

Date:

Astronomy

Feb. 05, 2014 Rise Set
Actual Time 7:16 AM MST 5:29 PM MST
Civil Twilight 6:47 AM MST 5:58 PM MST
Nautical Twilight 6:14 AM MST 6:31 PM MST
Astronomical Twilight 5:42 AM MST 7:04 PM MST
Moon 10:26 AM MST (2/5) No Moon Set
Length of Visible Light 11h 11m
Length of Day
10h 12m
Waxing Crescent, 40% of the Moon is Illuminated
Feb 5
Waxing Crescent
Feb 6
First Quarter
Feb 14
Full
Feb 22
Last Quarter
Mar 1
New

Hourly Weather History & Observations

Time (MST) Temp. Windchill Dew Point Humidity Pressure Visibility Wind Dir Wind Speed Gust Speed Precip Events Conditions
12:44 AM -9.4 °F -26.8 °F -14.8 °F 77% 30.06 in 8.0 mi NE 9.2 mph - N/A   Overcast
12:53 AM -9.0 °F -28.4 °F -15.0 °F 75% 30.44 in 3.0 mi ENE 11.5 mph - 0.00 in Snow Light Snow
1:53 AM -11.0 °F -29.9 °F -16.1 °F 78% 30.47 in 6.0 mi NE 10.4 mph - 0.00 in   Haze
2:33 AM -11.2 °F -29.0 °F -16.6 °F 77% 30.07 in 3.0 mi NE 9.2 mph - 0.00 in Snow Light Snow
2:37 AM -11.2 °F -27.8 °F -16.6 °F 77% 30.08 in 2.5 mi NE 8.1 mph - 0.00 in Snow Light Snow
2:45 AM -11.2 °F -29.0 °F -16.6 °F 77% 30.08 in 5.0 mi NE 9.2 mph - 0.00 in Snow Light Snow
2:53 AM -9.9 °F -28.6 °F -16.1 °F 74% 30.46 in 5.0 mi NE 10.4 mph - 0.00 in Snow Light Snow
3:21 AM -11.2 °F -30.1 °F -16.6 °F 77% 30.06 in 2.5 mi ENE 10.4 mph - 0.00 in Snow Light Snow
3:39 AM -11.2 °F -29.0 °F -16.6 °F 77% 30.06 in 6.0 mi ENE 9.2 mph - 0.00 in   Haze
3:53 AM -11.9 °F -29.9 °F -18.0 °F 74% 30.46 in 10.0 mi ENE 9.2 mph - 0.00 in   Overcast
4:32 AM -11.2 °F -26.4 °F -16.6 °F 77% 30.07 in 2.5 mi ENE 6.9 mph - 0.00 in Snow Light Snow
4:53 AM -11.0 °F -26.2 °F -17.0 °F 75% 30.49 in 3.0 mi ENE 6.9 mph - 0.00 in Snow Light Snow
5:53 AM -11.9 °F -29.9 °F -18.0 °F 74% 30.53 in 5.0 mi ENE 9.2 mph - 0.00 in Snow Light Snow
6:37 AM -11.2 °F -27.8 °F -16.6 °F 77% 30.08 in 2.0 mi ENE 8.1 mph - 0.00 in Snow Light Snow
6:53 AM -11.0 °F -27.6 °F -17.0 °F 75% 30.58 in 2.5 mi ENE 8.1 mph - 0.00 in Snow Light Snow
7:17 AM -11.2 °F -26.4 °F -18.4 °F 70% 30.08 in 5.0 mi ENE 6.9 mph - 0.00 in   Haze
7:53 AM -11.0 °F -24.6 °F -17.0 °F 75% 30.59 in 2.0 mi NE 5.8 mph - 0.00 in Snow Light Snow
8:17 AM -11.2 °F -23.0 °F -16.6 °F 77% 30.09 in 3.0 mi ENE 4.6 mph - 0.00 in   Haze
8:53 AM -9.9 °F -24.9 °F -17.0 °F 71% 30.58 in 10.0 mi ENE 6.9 mph - 0.00 in   Overcast
9:53 AM -8.0 °F -23.9 °F -15.0 °F 71% 30.54 in 8.0 mi NE 8.1 mph - N/A   Overcast
10:53 AM -7.1 °F -22.8 °F -15.0 °F 68% 30.55 in 8.0 mi ENE 8.1 mph - 0.00 in   Overcast
11:04 AM -5.8 °F -19.9 °F -14.8 °F 65% 30.10 in 5.0 mi ENE 6.9 mph - 0.00 in Snow Light Snow
11:53 AM -5.1 °F -15.8 °F -13.0 °F 69% 30.51 in 6.0 mi ENE 4.6 mph - 0.00 in   Haze
12:53 PM -2.9 °F -13.3 °F -11.9 °F 65% 30.46 in 9.0 mi NNE 4.6 mph - N/A   Overcast
1:12 PM -2.2 °F -12.5 °F -11.2 °F 66% 30.04 in 6.0 mi Variable 4.6 mph - N/A   Haze
1:38 PM -2.2 °F -10.4 °F -11.2 °F 66% 30.02 in 2.0 mi Variable 3.5 mph - 0.00 in Snow Light Snow
1:53 PM -2.9 °F -13.3 °F -11.0 °F 68% 30.44 in 3.0 mi ENE 4.6 mph - 0.00 in Snow Light Snow
2:00 PM -2.2 °F -14.2 °F -11.2 °F 66% 30.02 in 1.8 mi ENE 5.8 mph - 0.00 in Snow Light Snow
2:35 PM -2.2 °F -15.6 °F -9.4 °F 71% 30.01 in 2.5 mi East 6.9 mph - 0.00 in Snow Light Snow
2:49 PM -2.2 °F -15.6 °F -9.4 °F 71% 30.02 in 3.0 mi ENE 6.9 mph - 0.00 in   Haze
2:53 PM -2.0 °F -15.4 °F -9.9 °F 69% 30.43 in 4.0 mi East 6.9 mph - 0.00 in   Haze
3:24 PM -2.2 °F -14.2 °F -9.4 °F 71% 30.00 in 1.8 mi East 5.8 mph - 0.00 in Snow Light Snow
3:39 PM -2.2 °F -12.5 °F -9.4 °F 71% 30.00 in 2.5 mi ENE 4.6 mph - 0.00 in   Haze
3:45 PM -2.2 °F -12.5 °F -9.4 °F 71% 30.01 in 4.0 mi ENE 4.6 mph - 0.00 in   Haze
3:53 PM -2.0 °F -12.2 °F -9.0 °F 72% 30.43 in 1.8 mi ENE 4.6 mph - 0.00 in Snow Light Snow
4:11 PM -2.2 °F -14.2 °F -9.4 °F 71% 30.00 in 1.2 mi East 5.8 mph - 0.00 in Snow Light Snow
4:53 PM -2.0 °F -18.7 °F -8.0 °F 76% 30.42 in 1.0 mi NE 10.4 mph - 0.00 in Snow Light Snow
5:40 PM -2.2 °F -18.9 °F -9.4 °F 71% 29.99 in 2.0 mi NE 10.4 mph - 0.00 in Snow Light Snow
5:53 PM -2.9 °F -18.8 °F -9.0 °F 75% 30.42 in 2.0 mi NE 9.2 mph - 0.00 in Snow Light Snow
6:05 PM -2.2 °F -18.0 °F -9.4 °F 71% 29.98 in 1.8 mi NE 9.2 mph - 0.00 in Snow Light Snow
6:09 PM -2.2 °F -18.0 °F -9.4 °F 71% 29.99 in 2.0 mi NE 9.2 mph - 0.00 in Snow Light Snow
6:21 PM -2.2 °F -18.0 °F -9.4 °F 71% 29.99 in 4.0 mi NE 9.2 mph - 0.00 in Snow Light Snow
6:35 PM -4.0 °F -22.1 °F -9.4 °F 78% 29.99 in 1.8 mi NE 11.5 mph - 0.00 in Snow Light Snow
6:43 PM -4.0 °F -19.0 °F -9.4 °F 78% 29.98 in 2.0 mi NE 8.1 mph - 0.00 in Snow Light Snow
6:53 PM -4.0 °F -23.0 °F -9.9 °F 76% 30.42 in 3.0 mi NE 12.7 mph - 0.00 in Snow Light Snow
7:02 PM -5.8 °F -25.2 °F -9.4 °F 84% 29.99 in 3.0 mi NE 12.7 mph - 0.00 in Snow Light Snow
7:34 PM -5.8 °F -26.8 °F -11.2 °F 77% 29.99 in 3.0 mi NE 15.0 mph - 0.00 in Snow Light Snow
7:39 PM -5.8 °F -24.4 °F -11.2 °F 77% 29.99 in 2.5 mi NE 11.5 mph - 0.00 in Snow Light Snow
7:46 PM -5.8 °F -26.0 °F -11.2 °F 77% 30.00 in 4.0 mi NE 13.8 mph - 0.00 in Snow Light Snow
7:53 PM -6.0 °F -26.3 °F -11.0 °F 79% 30.43 in 3.0 mi NE 13.8 mph - 0.00 in Snow Light Snow
8:18 PM -5.8 °F -25.2 °F -11.2 °F 77% 29.99 in 2.5 mi NE 12.7 mph - 0.00 in Snow Light Snow
8:31 PM -5.8 °F -22.4 °F -11.2 °F 77% 30.00 in 3.0 mi NE 9.2 mph - 0.00 in Snow Light Snow
8:42 PM -5.8 °F -22.4 °F -11.2 °F 77% 30.00 in 3.0 mi NE 9.2 mph - 0.00 in Snow Light Snow
8:53 PM -5.1 °F -20.4 °F -11.0 °F 76% 30.43 in 3.0 mi North 8.1 mph - 0.00 in Snow Light Snow
8:55 PM -5.8 °F -21.2 °F -11.2 °F 77% 30.00 in 2.5 mi North 8.1 mph - 0.00 in Snow Light Snow
9:16 PM -5.8 °F -16.7 °F -11.2 °F 77% 30.01 in 5.0 mi North 4.6 mph - 0.00 in   Haze
9:30 PM -5.8 °F -16.7 °F -13.0 °F 71% 30.01 in 2.0 mi NE 4.6 mph - 0.00 in Snow Light Snow
9:37 PM -5.8 °F -19.9 °F -11.2 °F 77% 30.01 in 1.5 mi North 6.9 mph - 0.00 in Snow Light Snow
9:45 PM -7.6 °F -22.1 °F -13.0 °F 77% 30.00 in 3.0 mi North 6.9 mph - 0.00 in Snow Light Snow
9:53 PM -8.0 °F -23.9 °F -14.1 °F 75% 30.44 in 5.0 mi North 8.1 mph - 0.00 in   Haze
10:04 PM -7.6 °F -22.1 °F -14.8 °F 71% 30.01 in 4.0 mi North 6.9 mph - 0.00 in Snow Light Snow
10:15 PM -7.6 °F -20.6 °F -14.8 °F 71% 30.00 in 2.5 mi North 5.8 mph - 0.00 in Snow Light Snow
10:22 PM -7.6 °F -20.6 °F -14.8 °F 71% 30.00 in 1.8 mi NNE 5.8 mph - 0.01 in Snow Light Snow
10:31 PM -9.4 °F -18.6 °F -14.8 °F 77% 29.99 in 3.0 mi NNE 3.5 mph - 0.01 in Snow Light Snow
10:46 PM -9.4 °F -18.6 °F -14.8 °F 77% 29.99 in 10.0 mi North 3.5 mph - 0.01 in   Overcast
10:53 PM -9.9 °F - -15.0 °F 78% 30.43 in 10.0 mi Calm Calm - 0.01 in   Overcast
11:53 PM -9.9 °F -23.4 °F -16.1 °F 74% 30.42 in 4.0 mi NNE 5.8 mph - 0.00 in Snow Light Snow